Saint Ignace, MI

1:38 AM EST on January 21, 2017 (GMT -0500)
Mackinac Island

Weather History for KMCD - November, 2014

Change the Weather History Date:

Saturday, November 1, 2014

  Actual Average Record
Temperature  
Mean Temperature 30 °F -  
Max Temperature 35 °F 45 °F 66 °F (1999)
Min Temperature 26 °F 35 °F 26 °F (1993)
Degree Days  
Heating Degree Days 34    
Moisture  
Dew Point 21 °F    
Average Humidity 70    
Maximum Humidity 94    
Minimum Humidity 54    
Precipitation  
Precipitation 0.00 in - - ()
Sea Level Pressure  
Sea Level Pressure 30.39 in    
Wind  
Wind Speed 10 mph (North)    
Max Wind Speed 17 mph    
Max Gust Speed 23 mph    
Visibility 10 miles    
Events      
Averages and records for this station are not official NWS values.
T = Trace of Precipitation, MM = Missing Value Source: NWS Daily Summary

Daily Weather History Graph

Daily Weather History Graph

Search for Another Location

Airport or City:

Trip Planner

Search our weather history database for the weather conditions in past years. The results will help you decide how hot, cold, wet, or windy it might be!

Date:

Astronomy

Nov. 01, 2014 Rise Set
Actual Time 8:18 AM EDT 6:24 PM EDT
Civil Twilight 7:47 AM EDT 6:55 PM EDT
Nautical Twilight 7:12 AM EDT 7:31 PM EDT
Astronomical Twilight 6:37 AM EDT 8:05 PM EDT
Moon 3:35 PM EDT (11/1) 1:54 AM EDT (11/1)
Length of Visible Light 11h 08m
Length of Day
10h 06m
Waxing Gibbous, 67% of the Moon is Illuminated
Nov 1
Waxing Gibbous
Nov 6
Full
Nov 14
Last Quarter
Nov 22
New
Nov 29
First Quarter

Hourly Weather History & Observations

Time (EDT) Temp. Windchill Dew Point Humidity Pressure Visibility Wind Dir Wind Speed Gust Speed Precip Events Conditions
12:20 AM 28.9 °F 18.2 °F 16.5 °F 60% 30.39 in 10.0 mi NNE 13.8 mph 19.6 mph N/A   Scattered Clouds
12:39 AM 28.9 °F 18.6 °F 16.5 °F 60% 30.39 in 10.0 mi NNE 12.7 mph 17.3 mph N/A   Clear
12:59 AM 28.9 °F 18.6 °F 16.9 °F 61% 30.39 in 10.0 mi NNE 12.7 mph 21.9 mph N/A   Clear
1:20 AM 28.8 °F 17.9 °F 16.7 °F 61% 30.39 in 10.0 mi NNE 13.8 mph 19.6 mph N/A   Clear
1:39 AM 28.6 °F 17.7 °F 17.4 °F 63% 30.39 in 10.0 mi NNE 13.8 mph 20.7 mph N/A   Clear
1:59 AM 28.4 °F 16.2 °F 17.8 °F 64% 30.39 in 10.0 mi NNE 17.3 mph 23.0 mph N/A   Clear
2:20 AM 28.2 °F 17.2 °F 18.5 °F 67% 30.39 in 10.0 mi NNE 13.8 mph 19.6 mph N/A   Clear
2:39 AM 28.2 °F 17.2 °F 18.5 °F 67% 30.39 in 10.0 mi NNE 13.8 mph 21.9 mph N/A   Clear
2:59 AM 28.2 °F 17.7 °F 18.9 °F 68% 30.39 in 10.0 mi NNE 12.7 mph 20.7 mph N/A   Clear
3:20 AM 28.2 °F 17.2 °F 18.5 °F 67% 30.39 in 10.0 mi NNE 13.8 mph 19.6 mph N/A   Clear
3:39 AM 28.0 °F 18.1 °F 19.4 °F 70% 30.39 in 10.0 mi NNE 11.5 mph 18.4 mph N/A   Clear
3:59 AM 27.5 °F 18.6 °F 19.4 °F 72% 30.39 in 10.0 mi NNE 9.2 mph - N/A   Clear
4:19 AM 27.5 °F 18.0 °F 20.3 °F 74% 30.39 in 10.0 mi NNE 10.4 mph - N/A   Clear
4:39 AM 27.3 °F 16.1 °F 19.8 °F 73% 30.39 in 10.0 mi NNE 13.8 mph - N/A   Clear
5:00 AM 27.0 °F 17.3 °F 19.8 °F 74% 30.40 in 10.0 mi NNE 10.4 mph 19.6 mph N/A   Clear
5:19 AM 26.6 °F 16.2 °F 19.4 °F 74% 30.40 in 10.0 mi NNE 11.5 mph - N/A   Clear
5:39 AM 26.6 °F 16.2 °F 19.8 °F 75% 30.41 in 10.0 mi NNE 11.5 mph - N/A   Clear
6:00 AM 26.4 °F 16.0 °F 19.4 °F 75% 30.42 in 10.0 mi NNE 11.5 mph 16.1 mph N/A   Clear
6:19 AM 26.4 °F 16.6 °F 19.8 °F 76% 30.42 in 10.0 mi NNE 10.4 mph - N/A   Clear
6:39 AM 26.2 °F 16.4 °F 19.9 °F 77% 30.43 in 10.0 mi NNE 10.4 mph - N/A   Clear
7:00 AM 26.2 °F 17.1 °F 20.3 °F 78% 30.43 in 10.0 mi North 9.2 mph - N/A   Clear
7:19 AM 26.2 °F 15.8 °F 20.1 °F 78% 30.43 in 10.0 mi NNE 11.5 mph 17.3 mph N/A   Clear
7:40 AM 26.2 °F 15.8 °F 19.8 °F 76% 30.43 in 10.0 mi NNE 11.5 mph 16.1 mph N/A   Scattered Clouds
8:00 AM 26.4 °F 16.6 °F 19.4 °F 75% 30.43 in 10.0 mi North 10.4 mph - N/A   Clear
8:19 AM 26.4 °F 15.5 °F 19.2 °F 74% 30.43 in 10.0 mi NNE 12.7 mph - N/A   Clear
8:40 AM 26.4 °F 17.3 °F 18.9 °F 73% 30.43 in 10.0 mi NNE 9.2 mph - N/A   Clear
8:59 AM 27.1 °F 16.9 °F 18.9 °F 71% 30.44 in 10.0 mi NNE 11.5 mph - N/A   Clear
9:20 AM 27.9 °F 19.8 °F 18.9 °F 69% 30.45 in 10.0 mi NNE 8.1 mph - N/A   Clear
9:39 AM 28.6 °F 19.3 °F 19.2 °F 68% 30.44 in 10.0 mi NE 10.4 mph - N/A   Clear
10:00 AM 29.1 °F 18.4 °F 19.2 °F 67% 30.44 in 10.0 mi NE 13.8 mph - N/A   Clear
10:19 AM 29.3 °F 19.6 °F 19.4 °F 67% 30.45 in 10.0 mi NNE 11.5 mph 16.1 mph N/A   Clear
10:39 AM 30.0 °F 21.7 °F 19.0 °F 64% 30.45 in 10.0 mi NE 9.2 mph - N/A   Clear
11:00 AM 30.6 °F 23.8 °F 19.0 °F 62% 30.45 in 10.0 mi NE 6.9 mph - N/A   Clear
11:20 AM 31.5 °F 24.2 °F 18.5 °F 59% 30.45 in 10.0 mi NNE 8.1 mph - N/A   Clear
11:39 AM 31.8 °F 24.6 °F 18.3 °F 57% 30.45 in 10.0 mi NNE 8.1 mph - N/A   Clear
12:00 PM 32.0 °F 25.6 °F 19.4 °F 60% 30.45 in 10.0 mi North 6.9 mph - N/A   Clear
12:19 PM 32.0 °F 26.4 °F 19.2 °F 59% 30.45 in 10.0 mi North 5.8 mph - N/A   Clear
12:39 PM 32.4 °F 25.3 °F 19.4 °F 59% 30.44 in 10.0 mi North 8.1 mph - N/A   Clear
1:00 PM 33.1 °F 26.1 °F 19.4 °F 57% 30.43 in 10.0 mi NNE 8.1 mph - N/A   Clear
1:19 PM 33.6 °F 28.4 °F 19.4 °F 56% 30.43 in 10.0 mi North 5.8 mph - N/A   Clear
2:00 PM 34.2 °F 30.0 °F 19.0 °F 54% 30.41 in 10.0 mi North 4.6 mph - N/A   Clear
2:19 PM 34.0 °F - 19.2 °F 55% 30.40 in 10.0 mi Calm Calm - N/A   Clear
2:40 PM 35.4 °F 30.5 °F 20.7 °F 55% 30.40 in 10.0 mi North 5.8 mph - N/A   Clear
3:00 PM 35.2 °F - 20.8 °F 56% 30.39 in 10.0 mi Calm Calm - N/A   Clear
3:19 PM 35.4 °F 31.5 °F 20.7 °F 55% 30.38 in 10.0 mi NW 4.6 mph - N/A   Clear
3:40 PM 34.9 °F 29.0 °F 22.6 °F 61% 30.38 in 10.0 mi WSW 6.9 mph - N/A   Clear
4:00 PM 34.0 °F 31.0 °F 22.8 °F 64% 30.38 in 10.0 mi WSW 3.5 mph - N/A   Clear
4:19 PM 34.3 °F 27.7 °F 24.1 °F 66% 30.37 in 10.0 mi SW 8.1 mph - N/A   Clear
4:40 PM 34.7 °F 30.6 °F 24.4 °F 66% 30.37 in 10.0 mi SW 4.6 mph - N/A   Clear
5:00 PM 35.4 °F 29.7 °F 25.3 °F 67% 30.37 in 10.0 mi SW 6.9 mph - N/A   Clear
5:19 PM 35.4 °F 31.5 °F 25.5 °F 67% 30.36 in 10.0 mi WSW 4.6 mph - N/A   Clear
5:40 PM 35.2 °F 32.4 °F 25.3 °F 67% 30.36 in 10.0 mi SW 3.5 mph - N/A   Clear
5:59 PM 35.2 °F 29.5 °F 25.0 °F 66% 30.36 in 10.0 mi West 6.9 mph - N/A   Clear
6:20 PM 34.7 °F 28.1 °F 24.8 °F 67% 30.36 in 10.0 mi West 8.1 mph - N/A   Clear
6:40 PM 34.2 °F 28.2 °F 24.6 °F 68% 30.36 in 10.0 mi West 6.9 mph - N/A   Clear
6:59 PM 34.3 °F 28.4 °F 24.8 °F 68% 30.36 in 10.0 mi West 6.9 mph - N/A   Clear
7:20 PM 34.7 °F 29.6 °F 25.3 °F 69% 30.36 in 10.0 mi West 5.8 mph - N/A   Clear
7:40 PM 34.5 °F 30.4 °F 26.1 °F 71% 30.36 in 10.0 mi West 4.6 mph - N/A   Clear
7:59 PM 34.5 °F 31.6 °F 26.6 °F 73% 30.36 in 10.0 mi WNW 3.5 mph - N/A   Clear
8:20 PM 32.0 °F 27.5 °F 25.7 °F 78% 30.36 in 10.0 mi NNE 4.6 mph - N/A   Clear
8:40 PM 32.0 °F 27.5 °F 25.5 °F 77% 30.36 in 10.0 mi NNE 4.6 mph - N/A   Clear
9:00 PM 30.7 °F 24.9 °F 25.0 °F 79% 30.35 in 10.0 mi NNE 5.8 mph - N/A   Clear
9:20 PM 31.3 °F 26.6 °F 25.7 °F 80% 30.35 in 10.0 mi NE 4.6 mph - N/A   Clear
9:39 PM 30.0 °F 25.2 °F 25.3 °F 83% 30.35 in 10.0 mi NE 4.6 mph - N/A   Clear
10:00 PM 29.1 °F 23.0 °F 25.3 °F 86% 30.35 in 10.0 mi NE 5.8 mph - N/A   Clear
10:20 PM 29.5 °F 25.9 °F 25.3 °F 85% 30.35 in 10.0 mi NE 3.5 mph - N/A   Clear
10:40 PM 28.4 °F - 25.0 °F 87% 30.35 in 10.0 mi Calm Calm - N/A   Clear
11:00 PM 28.2 °F - 25.7 °F 90% 30.35 in 10.0 mi Calm Calm - N/A   Clear
11:20 PM 28.0 °F - 25.7 °F 91% 30.35 in 10.0 mi Calm Calm - N/A   Clear
11:40 PM 27.5 °F - 25.7 °F 93% 30.34 in 10.0 mi Calm Calm - N/A   Clear
11:59 PM 27.5 °F - 26.1 °F 94% 30.34 in 10.0 mi Calm Calm - N/A   Clear